Location: Aniagüita
(10.0946°N, 66.9708°W)
Time: 15:47:22
(UTC+00:00)

GOES 2 Rocket - Pass Details

Date: 30 June 2022
Orbit: 569 x 1672 km, 28.4° (Epoch: 06 August)

Event Time Altitude Azimuth Distance (km) Brightness Sun altitude
Rises 23:10:56 0° 229° (SW) 2,750 6.7 -4.9°
Reaches altitude 10° 23:13:10 10° 222° (SW) 1,878 5.8 -5.4°
Maximum altitude 23:17:15 46° 148° (SSE) 839 3.4 -6.3°
Drops below altitude 10° 23:21:59 10° 75° (ENE) 2,188 5.4 -7.4°
Sets 23:24:46 0° 70° (ENE) 3,264 6.3 -8.0°
